Regional Weather Roundup
Issued by NWS

Home | Current Version | Previous Version | Text Only | Print | Product List | Glossary On
Versions: 1 2 3 4 5 6 7 8 9 10 11 12 13 14 15 16 17 18 19 20 21 22 23 24 25 26 27 28 29 30 31 32 33 34 35 36 37 38 39 40 41 42 43 44 45 46 47 48 49 50
570
ASUS44 KLIX 281501
RWRLA
LOUISIANA WEATHER ROUNDUP
NATIONAL WEATHER SERVICE NEW ORLEANS LA
900 AM CST FRI NOV 28 2014

NOTE: "FAIR" INDICATES FEW OR NO CLOUDS BELOW 12,000 FEET WITH NO
      SIGNIFICANT WEATHER AND/OR OBSTRUCTIONS TO VISIBILITY.
      SKY/WX - SKY CONDITION AND SIGNIFICANT WEATHER.
      TMP - AIR TEMPERATURE.    DP   - DEWPOINT TEMPERATURE.
      RH  - RELATIVE HUMIDITY.  PRES - PRESSURE.
      HX  - HEAT INDEX.         WCI  - WIND CHILL INDEX.

*  THESE STATIONS ARE NOT NWS OR FAA STATIONS AND ARE NOT UNDER
   NWS QUALITY CONTROL.

LAZ040-048-061>063-065-066-069-281600-
SOUTHEAST LOUISIANA

CITY           SKY/WX    TMP DP  RH WIND       PRES   REMARKS
N.O. AUDUBON     N/A     50  38  64 MISG        N/A
N.O. INTL ARPT SUNNY     50  36  58 E9        30.43S
N.O. LAKEFRONT SUNNY     49  37  63 E9        30.45R
N.O. DOWNTOWN* FAIR      48  36  61 NE5       30.44R
SLIDELL        SUNNY     44  32  62 E8        30.45R
BATON ROUGE    SUNNY     45  32  60 E8        30.44S
BOOTHVILLE     SUNNY     54  44  69 NE9       30.42S
BELLE CHASSE   SUNNY     52  37  56 E8        30.43R
BOGALUSA*        N/A     44  34  67 E3        30.48S
NEW ROADS*     NOT AVBL
GONZALES*      NOT AVBL
HAMMOND*       NOT AVBL
HOUMA*         SUNNY     48  41  76 NE8       30.43S
PORT FOURCHON* SUNNY     54  45  71 NE9       30.45S

$$

LAZ041-044-053-054-281600-
SOUTHWEST LOUISIANA

CITY           SKY/WX    TMP DP  RH WIND       PRES   REMARKS
LAKE CHARLES   SUNNY     48  41  76 SE10      30.39F
LAFAYETTE      SUNNY     46  37  71 E6        30.42S
PATTERSON      SUNNY     48  39  71 E7        30.45S
SALT POINT       N/A     54  40  59 VRB3      30.41S
NEW IBERIA     SUNNY     49  38  65 E13       30.43S
CHENAULT AIRPK SUNNY     46  41  81 SE6       30.40S

$$

LAZ027-028-281600-
CENTRAL LOUISIANA

CITY           SKY/WX    TMP DP  RH WIND       PRES   REMARKS
FORT POLK      SUNNY     45  35  67 SE9       30.39S
ALEXANDRIA INT SUNNY     44  35  70 SE14      30.40F
ALEXANDRIA     SUNNY     44  36  73 SE8       30.41F

$$

LAZ001-002-281600-
NORTHWEST LOUISIANA

CITY           SKY/WX    TMP DP  RH WIND       PRES   REMARKS
SHREVEPORT     MOSUNNY   43  35  73 SE9       30.36S
BARKSDALE AFB  SUNNY     42  35  75 SE8       30.38R
DTN SHREVEPORT SUNNY     42  33  70 S10       30.37S

$$

LAZ014-016-281600-
NORTHEAST LOUISIANA

CITY           SKY/WX    TMP DP  RH WIND       PRES   REMARKS
MONROE         SUNNY     41  35  79 S7        30.42S
TALLULAH       SUNNY     43  33  68 SE10      30.43S

$$




USA.gov is the U.S. government's official web portal to all federal, state and local government web resources and services.